"Pseudo-MPEC" for P222Hxu

Created 2024 Dec 1 15:31:21 UT using Find_Orb

Click here for an explanation of pseudo-MPECs

 
 Astrometry: 
     P222Hxu* C2024 11 29.49918108 02 40.352+18 47 36.95   ~BTEV 22.47wXNEOCPF52
     P222Hxu  C2024 11 29.50869208 02 41.162+18 47 53.50   ~BTEV 22.02wXNEOCPF52
     P222Hxu  C2024 11 29.52774508 02 42.767+18 48 26.53   ~BTEV 22.27wXNEOCPF52
     P222Hxu  C2024 11 29.63495308 02 51.762+18 51 30.62   ~BTLH 21.56GVNEOCPF52
     P222Hxu  C2024 11 29.63558308 02 51.804+18 51 31.83   ~BTLH 21.87GVNEOCPF52
     P222Hxu 7C2024 12 01.12907808 05 06.182+19 34 32.65   ~C1BV 22.5 GVNEOCPZ84
     P222Hxu 7C2024 12 01.14293508 05 07.253+19 34 56.68   ~C1BV 22.0 GVNEOCPZ84
     P222Hxu 7C2024 12 01.15682608 05 08.381+19 35 21.37   ~C1BV       VNEOCPZ84

Station data:
(F52) Pan-STARRS 2, Haleakala  (N20.707382 W156.255910)  US/Hawaii.
   Observers J. Bulger, T. Dukes, T. Lowe, A. Schultz, M. Willman. Measurers
   K. Chambers, S. Chastel, T. de Boer, L. Denneau, J. Fairlamb, H.
   Flewelling, M. Huber, C.-C. Lin, E. Magnier, Y. Ramanjooloo, R. Wainscoat,
   R. Weryk. 1.8-m Ritchey-Chrétien + CCD.
(Z84) Calar Alto-Schmidt  (N37.224006 W2.548160)  Spain.  Observer F. Ocaña.
   Measurers E. Schwab, D. Koschny, M. Micheli. 0.8-m f/3 Schmidt + CCD.

Orbital elements:  P222Hxu
   Perihelion 2024 Nov 2.26743 +/- 0.469 TT =  6:25:05 (JD 2460616.76743)
Epoch 2024 Dec  1.0 TT = JDT 2460645.5   Earth MOID: 0.2727      AutoNEOCP
M   6.38024180 +/- 0.34             (J2000 ecliptic)
n   0.22205605 +/- 0.0149           Peri.  334.03896 +/- 0.7
a   2.70081169 +/- 0.121            Node    84.31088 +/- 0.17
e   0.5389295 +/- 0.0219            Incl.   12.18038 +/- 0.27
P   4.43855                H 22.11  G  0.15   U  9.9
q 1.24526457 +/- 0.00776    Q 4.15635881 +/- 0.245
From 8 observations 2024 Nov. 29-Dec. 1 (39.8 hr); mean residual 0".12
Residuals in arcseconds: 
241129 F52  .00   .03-    241129 F52  .08+  .07-    241201 Z84  .26-  .22-    
241129 F52  .04+  .01+    241129 F52  .07-  .07+    241201 Z84  .17+  .25+    
241129 F52  .04-  .02+    241201 Z84  .09+  .04-    

Ephemerides (geocentric):
Date (UTC) HH   RA             Dec           delta  r     elong  mag " sig PA
---- --------  ------------   ------------  ------ ------ -----  --- --------
2024 12 01 16  08 05 52.076   +19 50 18.67  .40902 1.2885 130.2 22.2 .788  56
2024 12 01 17  08 05 55.599   +19 51 31.66  .40901 1.2886 130.2 22.2 .873  56
2024 12 01 18  08 05 59.115   +19 52 44.68  .40899 1.2887 130.3 22.2 .962  55
2024 12 01 19  08 06 02.625   +19 53 57.73  .40898 1.2888 130.3 22.2 1.05  55
2024 12 01 20  08 06 06.128   +19 55 10.80  .40896 1.2890 130.3 22.2 1.15  54
2024 12 01 21  08 06 09.625   +19 56 23.89  .40895 1.2891 130.4 22.2 1.24  54
2024 12 01 22  08 06 13.115   +19 57 37.01  .40893 1.2892 130.4 22.2 1.34  54
2024 12 01 23  08 06 16.598   +19 58 50.16  .40892 1.2893 130.4 22.2 1.45  53
2024 12 02 00  08 06 20.074   +20 00 03.33  .40890 1.2894 130.5 22.2 1.55  53
2024 12 02 01  08 06 23.544   +20 01 16.52  .40889 1.2896 130.5 22.2 1.66  53
2024 12 02 02  08 06 27.007   +20 02 29.74  .40888 1.2897 130.5 22.2 1.77  53
2024 12 02 03  08 06 30.463   +20 03 42.99  .40886 1.2898 130.6 22.2 1.88  53
2024 12 02 04  08 06 33.912   +20 04 56.26  .40885 1.2899 130.6 22.2 2.00  53
2024 12 02 05  08 06 37.355   +20 06 09.55  .40884 1.2900 130.6 22.2 2.12  52
2024 12 02 06  08 06 40.791   +20 07 22.87  .40882 1.2902 130.7 22.2 2.24  52
2024 12 02 07  08 06 44.221   +20 08 36.21  .40881 1.2903 130.7 22.2 2.36  52
2024 12 02 08  08 06 47.643   +20 09 49.58  .40880 1.2904 130.7 22.2 2.49  52
2024 12 02 09  08 06 51.059   +20 11 02.97  .40879 1.2905 130.8 22.2 2.62  52
2024 12 02 10  08 06 54.469   +20 12 16.39  .40877 1.2906 130.8 22.2 2.75  52
2024 12 02 11  08 06 57.871   +20 13 29.83  .40876 1.2908 130.8 22.2 2.89  52
2024 12 02 12  08 07 01.267   +20 14 43.29  .40875 1.2909 130.9 22.2 3.02  52
2024 12 02 13  08 07 04.656   +20 15 56.78  .40874 1.2910 130.9 22.2 3.16  52
2024 12 02 14  08 07 08.038   +20 17 10.29  .40872 1.2911 130.9 22.2 3.31  52
2024 12 02 15  08 07 11.414   +20 18 23.83  .40871 1.2913 131.0 22.2 3.45  51
2024 12 02 16  08 07 14.782   +20 19 37.39  .40870 1.2914 131.0 22.2 3.60  51
2024 12 02 17  08 07 18.145   +20 20 50.97  .40869 1.2915 131.0 22.2 3.75  51
2024 12 02 18  08 07 21.500   +20 22 04.57  .40868 1.2916 131.1 22.2 3.91  51
2024 12 02 19  08 07 24.848   +20 23 18.20  .40867 1.2917 131.1 22.2 4.06  51
2024 12 02 20  08 07 28.190   +20 24 31.86  .40866 1.2919 131.1 22.2 4.22  51
2024 12 02 21  08 07 31.525   +20 25 45.53  .40865 1.2920 131.2 22.2 4.38  51
2024 12 02 22  08 07 34.854   +20 26 59.23  .40864 1.2921 131.2 22.2 4.55  51
2024 12 02 23  08 07 38.175   +20 28 12.95  .40863 1.2922 131.2 22.2 4.72  51
2024 12 03 00  08 07 41.490   +20 29 26.70  .40862 1.2924 131.3 22.2 4.89  51
2024 12 03 01  08 07 44.798   +20 30 40.47  .40861 1.2925 131.3 22.2 5.06  51
2024 12 03 02  08 07 48.099   +20 31 54.26  .40860 1.2926 131.3 22.2 5.23  51
2024 12 03 03  08 07 51.393   +20 33 08.07  .40859 1.2927 131.4 22.2 5.41  51
2024 12 03 04  08 07 54.681   +20 34 21.91  .40858 1.2929 131.4 22.2 5.59  51
2024 12 03 05  08 07 57.962   +20 35 35.77  .40857 1.2930 131.4 22.2 5.78  51
2024 12 03 06  08 08 01.236   +20 36 49.65  .40856 1.2931 131.5 22.2 5.96  51
2024 12 03 07  08 08 04.503   +20 38 03.55  .40855 1.2932 131.5 22.2 6.15  51
2024 12 03 08  08 08 07.764   +20 39 17.48  .40854 1.2934 131.5 22.2 6.34  51
2024 12 03 09  08 08 11.018   +20 40 31.43  .40853 1.2935 131.6 22.2 6.54  50
2024 12 03 10  08 08 14.265   +20 41 45.40  .40853 1.2936 131.6 22.2 6.73  50
2024 12 03 11  08 08 17.505   +20 42 59.39  .40852 1.2937 131.6 22.2 6.93  50
2024 12 03 12  08 08 20.738   +20 44 13.41  .40851 1.2939 131.7 22.2 7.13  50
2024 12 03 13  08 08 23.965   +20 45 27.44  .40850 1.2940 131.7 22.2 7.34  50
2024 12 03 14  08 08 27.185   +20 46 41.50  .40849 1.2941 131.8 22.2 7.55  50
2024 12 03 15  08 08 30.398   +20 47 55.58  .40849 1.2942 131.8 22.2 7.76  50